Regional Weather Roundup
Issued by NWS State College, PA

Home | Current Version | Previous Version | Text Only | Print | Product List | Glossary Off
Versions: 1 2 3 4 5 6 7 8 9 10 11 12 13 14 15 16 17 18 19 20 21 22 23 24 25 26 27 28 29 30 31 32 33 34 35 36 37 38 39 40 41 42 43 44 45 46 47 48 49 50

216
ASUS41 KCTP 261203
RWRCTP

REGIONAL WEATHER ROUNDUP
NATIONAL WEATHER SERVICE STATE COLLEGE PA
800 AM EDT TUE JUL 26 2016

Note: "fair" indicates few or no clouds below 12,000 feet with no
significant weather and/or obstructions to visibility.

* = STATION THAT DOES NOT REPORT PRECIPITATION /E.G. RAIN...SNOW...ETC/
    THUNDER OR FOG.

PAZ002>004-007>009-013>016-020>023-029>032-261300-
WESTERN PENNSYLVANIA

CITY           SKY/WX    TMP DP  RH WIND       PRES   REMARKS
ERIE           MOSUNNY   73  60  63 VRB5      30.04R
MEADVILLE      SUNNY     67  62  84 NE5       30.07R
FRANKLIN*      SUNNY     66  63  88 N7        30.08R
NEW CASTLE     FAIR      70  68  93 NE5       30.06R
BEAVER COUNTY  SUNNY     72  66  83 N5        30.05F
BUTLER*        MOSUNNY   70  68  94 CALM      30.08R
PITTSBURGH INT CLOUDY    74  67  78 VRB6      30.04R
PITTSBURGH     SUNNY     75  69  81 CALM      30.04R
INDIANA*       CLOUDY    72  72 100 W3        30.08R FOG
LATROBE        SUNNY     73  73 100 SW9       30.05R
WASHINGTON CO* CLOUDY    72  70  94 CALM      30.06R
$$

PAZ004>006-010>012-017>019-024>028-033>037-041-042-045-046-049>053-261300-
CENTRAL PENNSYLVANIA

CITY           SKY/WX    TMP DP  RH WIND       PRES   REMARKS
BRADFORD       SUNNY     67  61  81 NW5       30.06R
DUBOIS         CLOUDY    67  64  90 N3        30.06R
CLEARFIELD     FOG       69  67  93 SW3       30.05R VSB<1/4
JOHNSTOWN      SUNNY     70  66  87 SW6       30.08R FOG
ALTOONA        SUNNY     73  67  81 SW5       30.05R
STATE COLLEGE  SUNNY     73  70  88 W7        30.02R
WILLIAMSPORT   CLOUDY    73  68  84 NW6       29.97R
SELINSGROVE    FOG       70  70 100 CALM      29.98R VSB 1/4
FT INDIANTOWN  FOG       69  69 100 CALM      29.97R VSB<1/4
CAPITAL CITY   FOG       74  72  93 W5        29.97R VSB 1
HARRISBURG     CLOUDY    73  73 100 NW6       29.96R FOG
YORK           PTSUNNY   73  72  96 CALM      29.98R FOG
$$

PAZ038>040-043-044-047-048-054-055-060>062-067>071-261300-
EASTERN PENNSYLVANIA

CITY           SKY/WX    TMP DP  RH WIND       PRES   REMARKS
SCRANTON       PTSUNNY   71  68  90 SW7       29.98R
MOUNT POCONO   SUNNY     67  64  90 NW7       30.00R
ALLENTOWN      CLOUDY    71  68  90 SW3       29.95S
QUAKERTOWN*    MOSUNNY   75  72  88 CALM      29.96S
READING        CLOUDY    71  69  93 SW3       29.95R VSB 3/4
LANCASTER      FOG       71  71 100 W5        29.97R VSB 1/4
COATESVILLE    CLOUDY    75  73  94 W8        29.99R
POTTSTOWN      MOSUNNY   72  71  97 VRB5      29.97R FOG
BLUE BELL      MOSUNNY   72  70  94 SW3       29.94R
DOYLESTOWN     CLOUDY    73  70  90 NW3       29.94S
WILLOW GROVE   NOT AVBL
NORTH PHILA    MOSUNNY   77  72  84 W6        29.95R
PHILADELPHIA   PTSUNNY   77  71  82 W3        29.94S
$$




USA.gov is the U.S. government's official web portal to all federal, state and local government web resources and services.